Location: Roc des P�zouls
(43.9667°N, 3.5500°E)
Time: 18:24:20
(UTC+00:00)

SJ 16-02 - Pass Details

Date: 14 November 2019
Orbit: 606 x 616 km, 75.0° (Epoch: 10 December)

Event Time Altitude Azimuth Distance (km) Brightness Sun altitude
Rises 06:03:15 0° 236° (SW) 2,861 4.4 -6.8°
Reaches altitude 10° 06:05:59 10° 253° (WSW) 1,960 3.5 -6.3°
Maximum altitude 06:09:13 20° 301° (WNW) 1,421 2.6 -5.8°
Drops below altitude 10° 06:12:29 10° 349° (N) 1,967 3.6 -5.2°
Sets 06:15:15 0° 7° (N) 2,875 4.6 -4.7°
